Location: Sungai Buloh
(3.1000°N, 113.0000°E)
Time: 15:48:50
(UTC+00:00)

BLOCK DM-SL R/B - Pass Details

Date: 12 January 2026
Orbit: 879 x 35774 km, 1.4° (Epoch: 11 February)

Event Time Altitude Azimuth Distance (km) Brightness Sun altitude
Rises 13:00:45 0° 267° (W) 9,635 9.5 -34.5°
Reaches altitude 10° 13:10:05 10° 265° (W) 5,885 8.2 -36.7°
Enters shadow 13:20:22 58° 243° (WSW) 1,429 4.4 -39.0°
